• In Uzbekistan
  • List of Countries
  • For 7 days
  • Water Temperature
  • Satellite Maps
  • Weather Map
  • Weather Widgets
  • user-avatar
    Login

    Hourly Weather Lama-Kara

    Today, 23 October, Tuesday

    Time Temperature Precipitation Wind Pressure Humidity
    00:00 +28°C° 0 mm 1 mps 732 mmHg 57%
    01:00 +28°C° 0 mm 1 mps 732 mmHg 59%
    02:00 +27°C° 0 mm 1 mps 732 mmHg 60%
    03:00 +27°C° 0 mm 1 mps 731 mmHg 62%
    04:00 +27°C° 0 mm 1 mps 731 mmHg 65%
    05:00 +26°C° 0 mm 1 mps 731 mmHg 67%
    06:00 +26°C° 0 mm 1 mps 732 mmHg 70%
    07:00 +29°C° 0 mm 1 mps 732 mmHg 62%
    08:00 +32°C° 0 mm 1 mps 733 mmHg 54%
    09:00 +34°C° 0 mm 1 mps 733 mmHg 46%
    10:00 +36°C° 0 mm 1 mps 733 mmHg 37%
    11:00 +39°C° 0 mm 1 mps 732 mmHg 29%
    12:00 +41°C° 0 mm 2 mps 732 mmHg 21%
    13:00 +41°C° 0 mm 2 mps 731 mmHg 19%
    14:00 +42°C° 0 mm 3 mps 731 mmHg 18%
    15:00 +42°C° 0 mm 3 mps 730 mmHg 17%
    16:00 +38°C° 0 mm 3 mps 730 mmHg 22%
    17:00 +36°C° 0 mm 2 mps 730 mmHg 28%
    18:00 +32°C° 0 mm 2 mps 730 mmHg 34%
    19:00 +32°C° 0 mm 2 mps 730 mmHg 37%
    20:00 +31°C° 0 mm 2 mps 731 mmHg 40%
    21:00 +30°C° 0 mm 2 mps 732 mmHg 44%
    22:00 +29°C° 0 mm 2 mps 732 mmHg 46%
    23:00 +29°C° 0 mm 1 mps 732 mmHg 49%

    Tomorrow, 24 October, Wednesday

    Time Temperature Precipitation Wind Pressure Humidity
    00:00 +28°C° 0 mm 1 mps 732 mmHg 52%
    01:00 +28°C° 0 mm 1 mps 731 mmHg 57%
    02:00 +27°C° 0 mm 1 mps 731 mmHg 61%
    03:00 +26°C° 0 mm 1 mps 731 mmHg 66%
    04:00 +26°C° 0 mm 1 mps 731 mmHg 71%
    05:00 +26°C° 0 mm 1 mps 731 mmHg 75%
    06:00 +25°C° 0 mm 1 mps 731 mmHg 80%
    07:00 +28°C° 0 mm 2 mps 732 mmHg 73%
    08:00 +30°C° 0 mm 2 mps 732 mmHg 66%
    09:00 +32°C° 0 mm 2 mps 733 mmHg 59%
    10:00 +35°C° 0 mm 2 mps 732 mmHg 52%
    11:00 +37°C° 0 mm 2 mps 732 mmHg 45%
    12:00 +39°C° 0 mm 1 mps 731 mmHg 38%
    13:00 +39°C° 0 mm 1 mps 731 mmHg 34%
    14:00 +40°C° 0 mm 1 mps 730 mmHg 31%
    15:00 +38°C° 0 mm 0 mps 729 mmHg 28%
    16:00 +37°C° 0 mm 1 mps 729 mmHg 32%
    17:00 +35°C° 0 mm 1 mps 729 mmHg 36%
    18:00 +33°C° 0 mm 1 mps 729 mmHg 40%
    19:00 +32°C° 0 mm 1 mps 730 mmHg 45%
    20:00 +31°C° 0 mm 2 mps 731 mmHg 50%
    21:00 +30°C° 0 mm 2 mps 731 mmHg 54%
    22:00 +30°C° 0 mm 3 mps 731 mmHg 59%
    23:00 +29°C° 0 mm 3 mps 731 mmHg 64%

    Day after tomorrow, 25 October, Thursday

    Time Temperature Precipitation Wind Pressure Humidity
    00:00 +28°C° 0 mm 3 mps 731 mmHg 70%
    01:00 +28°C° 0 mm 3 mps 731 mmHg 72%
    02:00 +27°C° 0 mm 2 mps 731 mmHg 75%
    03:00 +27°C° 0 mm 2 mps 730 mmHg 78%
    04:00 +26°C° 0 mm 2 mps 731 mmHg 80%
    05:00 +26°C° 0 mm 2 mps 731 mmHg 83%
    06:00 +25°C° 0 mm 1 mps 731 mmHg 85%
    07:00 +28°C° 0 mm 2 mps 732 mmHg 76%
    08:00 +30°C° 0 mm 2 mps 732 mmHg 67%
    09:00 +32°C° 0 mm 2 mps 733 mmHg 59%
    10:00 +35°C° 0 mm 2 mps 732 mmHg 52%
    11:00 +37°C° 0 mm 2 mps 732 mmHg 45%
    12:00 +39°C° 0 mm 2 mps 731 mmHg 38%
    13:00 +39°C° 0 mm 2 mps 730 mmHg 35%
    14:00 +40°C° 0 mm 1 mps 730 mmHg 33%
    15:00 +40°C° 0 mm 1 mps 729 mmHg 30%
    16:00 +38°C° 0 mm 2 mps 729 mmHg 37%
    17:00 +36°C° 0 mm 2 mps 729 mmHg 43%
    18:00 +34°C° 0 mm 2 mps 729 mmHg 49%
    19:00 +32°C° 0.1 mm 2 mps 730 mmHg 54%
    20:00 +31°C° 0.1 mm 2 mps 731 mmHg 59%
    21:00 +30°C° 0.1 mm 3 mps 731 mmHg 64%
    22:00 +30°C° 0 mm 3 mps 731 mmHg 68%
    23:00 +29°C° 0 mm 3 mps 731 mmHg 72%

    26 October, Friday

    Time Temperature Precipitation Wind Pressure Humidity
    00:00 +28°C° 0 mm 3 mps 731 mmHg 75%
    01:00 +28°C° 0 mm 3 mps 731 mmHg 78%
    02:00 +27°C° 0 mm 3 mps 731 mmHg 81%
    03:00 +27°C° 0 mm 3 mps 730 mmHg 84%
    04:00 +26°C° 0 mm 2 mps 731 mmHg 86%
    05:00 +26°C° 0 mm 2 mps 731 mmHg 88%
    06:00 +26°C° 0 mm 1 mps 731 mmHg 90%
    07:00 +28°C° 0 mm 2 mps 732 mmHg 80%
    08:00 +30°C° 0 mm 2 mps 732 mmHg 71%
    09:00 +33°C° 0 mm 3 mps 733 mmHg 61%
    10:00 +35°C° 0 mm 2 mps 732 mmHg 54%
    11:00 +37°C° 0 mm 2 mps 732 mmHg 47%
    12:00 +38°C° 0 mm 2 mps 731 mmHg 40%
    13:00 +39°C° 0 mm 2 mps 730 mmHg 37%
    14:00 +39°C° 0 mm 2 mps 730 mmHg 35%
    15:00 +40°C° 0 mm 1 mps 729 mmHg 32%
    16:00 +38°C° 0 mm 2 mps 729 mmHg 37%
    17:00 +36°C° 0 mm 2 mps 730 mmHg 43%
    18:00 +34°C° 0 mm 2 mps 730 mmHg 48%
    19:00 +32°C° 0 mm 2 mps 731 mmHg 51%
    20:00 +33°C° 0 mm 3 mps 731 mmHg 54%
    21:00 +31°C° 0 mm 3 mps 732 mmHg 57%
    22:00 +30°C° 0.3 mm 3 mps 732 mmHg 65%
    23:00 +28°C° 0.3 mm 2 mps 732 mmHg 72%

    27 October, Saturday

    Time Temperature Precipitation Wind Pressure Humidity
    00:00 +27°C° 0.3 mm 2 mps 732 mmHg 80%
    01:00 +27°C° 0.2 mm 1 mps 732 mmHg 82%
    02:00 +27°C° 0.2 mm 1 mps 731 mmHg 84%
    03:00 +24°C° 0.2 mm 0 mps 731 mmHg 86%
    04:00 +26°C° 0 mm 1 mps 732 mmHg 86%
    05:00 +26°C° 0 mm 1 mps 732 mmHg 87%
    06:00 +26°C° 0 mm 1 mps 733 mmHg 87%
    07:00 +28°C° 0 mm 1 mps 733 mmHg 79%
    08:00 +30°C° 0 mm 1 mps 734 mmHg 71%
    09:00 +32°C° 0 mm 2 mps 734 mmHg 63%
    10:00 +34°C° 0 mm 1 mps 733 mmHg 55%
    11:00 +36°C° 0 mm 1 mps 732 mmHg 48%
    12:00 +39°C° 0 mm 1 mps 732 mmHg 41%
    13:00 +39°C° 0 mm 1 mps 731 mmHg 41%
    14:00 +37°C° 0 mm 1 mps 730 mmHg 41%
    15:00 +36°C° 0 mm 1 mps 730 mmHg 41%
    16:00 +35°C° 0 mm 1 mps 730 mmHg 45%
    17:00 +34°C° 0 mm 1 mps 730 mmHg 49%
    18:00 +32°C° 0 mm 1 mps 730 mmHg 53%
    19:00 +32°C° 0 mm 1 mps 731 mmHg 55%
    20:00 +31°C° 0 mm 1 mps 731 mmHg 58%
    21:00 +30°C° 0 mm 1 mps 732 mmHg 60%
    22:00 +29°C° 0.2 mm 1 mps 732 mmHg 66%
    23:00 +29°C° 0.2 mm 2 mps 731 mmHg 71%

    28 October, Sunday

    Time Temperature Precipitation Wind Pressure Humidity
    00:00 +28°C° 0.2 mm 2 mps 731 mmHg 77%
    01:00 +27°C° 0.2 mm 2 mps 731 mmHg 79%
    02:00 +27°C° 0.2 mm 2 mps 731 mmHg 82%
    03:00 +27°C° 0.2 mm 1 mps 731 mmHg 85%
    04:00 +26°C° 0.3 mm 1 mps 731 mmHg 86%
    05:00 +26°C° 0.3 mm 1 mps 732 mmHg 87%
    06:00 +26°C° 0.3 mm 1 mps 732 mmHg 89%
    07:00 +28°C° 0 mm 1 mps 733 mmHg 81%
    08:00 +29°C° 0 mm 2 mps 733 mmHg 74%
    09:00 +31°C° 0 mm 2 mps 733 mmHg 66%
    10:00 +32°C° 1.8 mm 2 mps 733 mmHg 62%
    11:00 +34°C° 1.8 mm 2 mps 732 mmHg 58%
    12:00 +34°C° 1.8 mm 1 mps 732 mmHg 53%
    13:00 +34°C° 0 mm 1 mps 731 mmHg 52%
    14:00 +34°C° 0 mm 1 mps 731 mmHg 51%
    15:00 +32°C° 0 mm 0 mps 730 mmHg 50%
    16:00 +30°C° 0.1 mm 0 mps 730 mmHg 55%
    17:00 +31°C° 0.1 mm 1 mps 730 mmHg 59%
    18:00 +30°C° 0.1 mm 1 mps 731 mmHg 64%
    19:00 +29°C° 0.1 mm 1 mps 731 mmHg 66%
    20:00 +29°C° 0.1 mm 1 mps 731 mmHg 68%
    21:00 +29°C° 0.1 mm 1 mps 732 mmHg 70%
    22:00 +28°C° 0.2 mm 1 mps 731 mmHg 72%
    23:00 +28°C° 0.2 mm 1 mps 731 mmHg 74%

    29 October, Monday

    Time Temperature Precipitation Wind Pressure Humidity
    00:00 +27°C° 0.2 mm 1 mps 731 mmHg 77%
    01:00 +27°C° 0.5 mm 1 mps 731 mmHg 79%
    02:00 +27°C° 0.5 mm 1 mps 731 mmHg 82%
    03:00 +26°C° 0.5 mm 1 mps 731 mmHg 84%
    04:00 +26°C° 0.3 mm 1 mps 731 mmHg 86%
    05:00 +26°C° 0.3 mm 1 mps 732 mmHg 88%
    06:00 +25°C° 0.3 mm 1 mps 733 mmHg 89%
    07:00 +27°C° 0 mm 2 mps 733 mmHg 83%
    08:00 +29°C° 0 mm 2 mps 733 mmHg 77%
    09:00 +30°C° 0 mm 2 mps 733 mmHg 71%
    10:00 +32°C° 0 mm 2 mps 732 mmHg 66%
    11:00 +34°C° 0 mm 2 mps 732 mmHg 60%
    12:00 +35°C° 0 mm 2 mps 731 mmHg 54%
    13:00 +36°C° 0 mm 2 mps 731 mmHg 52%
    14:00 +35°C° 0 mm 1 mps 730 mmHg 51%
    15:00 +35°C° 0 mm 1 mps 729 mmHg 49%
    16:00 +34°C° 0 mm 1 mps 730 mmHg 53%
    17:00 +33°C° 0 mm 1 mps 730 mmHg 58%
    18:00 +31°C° 0 mm 1 mps 730 mmHg 62%
    19:00 +31°C° 0.1 mm 1 mps 731 mmHg 65%
    20:00 +30°C° 0.1 mm 1 mps 731 mmHg 68%
    21:00 +29°C° 0.1 mm 1 mps 731 mmHg 71%
    22:00 +29°C° 0.1 mm 1 mps 731 mmHg 73%
    23:00 +29°C° 0.1 mm 1 mps 731 mmHg 74%
    Show more